,,,PA_Meas_PMT16A,,PR_Meas_QMR101_102,,RH_Meas_QMH101,,SR_Meas_QMS101,,TA_Meas_QMH101,,GenWind,,GenWind,
date,time,status,PA,status,PR,status,RH,status,SR,status,TA,status,DirAvg,status,SpdAvg,
2010-05-03, 00:00:04,VALID,1008.42,VALID,0,VALID,102.277,VALID,0.105969,VALID,24.1422,VALID,51,VALID,0.292578,
2010-05-03, 00:01:04,VALID,1008.41,VALID,0,VALID,102.277,VALID,0,VALID,24.1014,VALID,51,VALID,0.194922,
2010-05-03, 00:02:04,VALID,1008.4,VALID,0,VALID,102.299,VALID,0,VALID,24.0624,VALID,51,VALID,0.01875,
2010-05-03, 00:03:04,VALID,1008.4,VALID,0,VALID,102.277,VALID,0,VALID,24.1032,VALID,51,VALID,0.335156,
2010-05-03, 00:04:04,VALID,1008.4,VALID,0,VALID,102.277,VALID,0,VALID,24.0624,VALID,42,VALID,0.519922,
2010-05-03, 00:05:04,VALID,1008.39,VALID,0,VALID,102.284,VALID,0,VALID,24.0837,VALID,38,VALID,0.439063,
2010-05-03, 00:06:04,VALID,1008.4,VALID,0,VALID,102.277,VALID,0,VALID,24.0429,VALID,38,VALID,0.380469,
2010-05-03, 00:07:04,VALID,1008.41,VALID,0,VALID,102.284,VALID,0.105969,VALID,24.0235,VALID,38,VALID,0.528906,
2010-05-03, 00:08:04,VALID,1008.41,VALID,0,VALID,102.299,VALID,0,VALID,24.0253,VALID,38,VALID,0.388281,
2010-05-03, 00:09:04,VALID,1008.39,VALID,0,VALID,102.269,VALID,0,VALID,24.004,VALID,46,VALID,0.795703,
2010-05-03, 00:10:04,VALID,1008.4,VALID,0,VALID,102.254,VALID,0,VALID,24.0253,VALID,48,VALID,0.414453,
2010-05-03, 00:11:04,VALID,1008.43,VALID,0,VALID,102.269,VALID,0,VALID,24.0253,VALID,45,VALID,0.275391,
2010-05-03, 00:12:04,VALID,1008.41,VALID,0,VALID,102.261,VALID,0,VALID,24.0058,VALID,45,VALID,0.284766,
2010-05-03, 00:13:04,VALID,1008.42,VALID,0,VALID,102.261,VALID,0,VALID,24.0253,VALID,53,VALID,0.660937,
2010-05-03, 00:14:04,VALID,1008.42,VALID,0,VALID,102.238,VALID,0.105969,VALID,24.004,VALID,58,VALID,0.507031,
2010-05-03, 00:15:04,VALID,1008.41,VALID,0,VALID,102.261,VALID,0,VALID,24.0058,VALID,58,VALID,0.151953,
2010-05-03, 00:16:04,VALID,1008.43,VALID,0,VALID,102.269,VALID,0,VALID,23.965,VALID,58,VALID,0,
2010-05-03, 00:17:04,VALID,1008.4,VALID,0,VALID,102.261,VALID,0.105969,VALID,23.9863,VALID,58,VALID,0.272656,
2010-05-03, 00:18:04,VALID,1008.45,VALID,0,VALID,102.269,VALID,0.105969,VALID,23.9863,VALID,58,VALID,0.0925781,
2010-05-03, 00:19:04,VALID,1008.42,VALID,0,VALID,102.254,VALID,0,VALID,23.9668,VALID,58,VALID,0.0566406,
2010-05-03, 00:20:04,VALID,1008.4,VALID,0,VALID,102.254,VALID,0.105969,VALID,23.9668,VALID,58,VALID,0,
2010-05-03, 00:21:04,VALID,1008.41,VALID,0,VALID,102.246,VALID,0.105969,VALID,23.965,VALID,58,VALID,0.290234,
2010-05-03, 00:22:04,VALID,1008.42,VALID,0,VALID,102.246,VALID,0.105969,VALID,23.9668,VALID,58,VALID,0.258594,
2010-05-03, 00:23:04,VALID,1008.4,VALID,0,VALID,102.238,VALID,0.105969,VALID,23.9668,VALID,58,VALID,0,
2010-05-03, 00:24:04,VALID,1008.4,VALID,0,VALID,102.223,VALID,0,VALID,23.9473,VALID,58,VALID,0.124609,
2010-05-03, 00:25:04,VALID,1008.36,VALID,0,VALID,102.231,VALID,0,VALID,23.9473,VALID,58,VALID,0.358594,
2010-05-03, 00:26:04,VALID,1008.33,VALID,0,VALID,102.223,VALID,0.105969,VALID,23.926,VALID,58,VALID,0,
2010-05-03, 00:27:04,VALID,1008.29,VALID,0,VALID,102.261,VALID,0.105969,VALID,23.9278,VALID,58,VALID,0,
2010-05-03, 00:28:04,VALID,1008.3,VALID,0,VALID,102.254,VALID,0,VALID,23.9084,VALID,58,VALID,0,
2010-05-03, 00:29:04,VALID,1008.27,VALID,0,VALID,102.261,VALID,0,VALID,23.8676,VALID,58,VALID,0,
2010-05-03, 00:30:04,VALID,1008.26,VALID,0,VALID,102.246,VALID,0,VALID,23.8889,VALID,58,VALID,0,
2010-05-03, 00:31:04,VALID,1008.24,VALID,0,VALID,102.216,VALID,0,VALID,23.8889,VALID,58,VALID,0.0410156,
2010-05-03, 00:32:04,VALID,1008.23,VALID,0,VALID,102.216,VALID,0,VALID,23.8889,VALID,58,VALID,0,
2010-05-03, 00:33:04,VALID,1008.22,VALID,0,VALID,102.231,VALID,0,VALID,23.8889,VALID,58,VALID,0.160547,
2010-05-03, 00:34:04,VALID,1008.18,VALID,0,VALID,102.216,VALID,0,VALID,23.8889,VALID,58,VALID,0.00429688,
2010-05-03, 00:35:04,VALID,1008.17,VALID,0,VALID,102.2,VALID,0.105969,VALID,23.8694,VALID,58,VALID,0,
2010-05-03, 00:36:04,VALID,1008.14,VALID,0,VALID,102.216,VALID,0.105969,VALID,23.8694,VALID,58,VALID,0,
2010-05-03, 00:37:04,VALID,1008.11,VALID,0,VALID,102.208,VALID,0,VALID,23.8481,VALID,58,VALID,0.196875,
2010-05-03, 00:38:04,VALID,1008.09,VALID,0,VALID,102.2,VALID,0,VALID,23.8694,VALID,58,VALID,0.419531,
2010-05-03, 00:39:04,VALID,1008.09,VALID,0,VALID,102.193,VALID,0,VALID,23.8481,VALID,58,VALID,0.065625,
2010-05-03, 00:40:04,VALID,1008.05,VALID,0,VALID,102.2,VALID,0.105969,VALID,23.8499,VALID,58,VALID,0.332422,
2010-05-03, 00:41:04,VALID,1008.07,VALID,0,VALID,102.2,VALID,0,VALID,23.8694,VALID,64,VALID,0.460547,
2010-05-03, 00:42:04,VALID,1008.06,VALID,0,VALID,102.208,VALID,0,VALID,23.8499,VALID,64,VALID,0,
2010-05-03, 00:43:04,VALID,1008.06,VALID,0,VALID,102.2,VALID,0.105969,VALID,23.8304,VALID,64,VALID,0,
2010-05-03, 00:44:04,VALID,1008.06,VALID,0,VALID,102.177,VALID,0,VALID,23.8304,VALID,64,VALID,0,
2010-05-03, 00:45:04,VALID,1008.05,VALID,0,VALID,102.17,VALID,0,VALID,23.8499,VALID,61,VALID,0.0359375,
2010-05-03, 00:46:04,VALID,1008.06,VALID,0,VALID,102.17,VALID,0,VALID,23.8091,VALID,61,VALID,0,
2010-05-03, 00:47:04,VALID,1008.08,VALID,0,VALID,102.17,VALID,0,VALID,23.8499,VALID,61,VALID,0,
2010-05-03, 00:48:04,VALID,1008.09,VALID,0,VALID,102.17,VALID,0.105969,VALID,23.8304,VALID,61,VALID,0,
2010-05-03, 00:49:04,VALID,1008.08,VALID,0,VALID,102.162,VALID,0,VALID,23.8304,VALID,61,VALID,0,
2010-05-03, 00:50:04,VALID,1008.12,VALID,0,VALID,102.147,VALID,0,VALID,23.8304,VALID,62,VALID,0,
2010-05-03, 00:51:04,VALID,1008.1,VALID,0,VALID,102.155,VALID,0,VALID,23.8091,VALID,61,VALID,0,
2010-05-03, 00:52:04,VALID,1008.11,VALID,0,VALID,102.139,VALID,0,VALID,23.8304,VALID,61,VALID,0,
2010-05-03, 00:53:04,VALID,1008.13,VALID,0,VALID,102.109,VALID,0,VALID,23.8091,VALID,61,VALID,0,
2010-05-03, 00:54:04,VALID,1008.15,VALID,0,VALID,102.109,VALID,0,VALID,23.8091,VALID,61,VALID,0.171875,
2010-05-03, 00:55:04,VALID,1008.16,VALID,0,VALID,102.094,VALID,0,VALID,23.8304,VALID,61,VALID,0,
2010-05-03, 00:56:04,VALID,1008.14,VALID,0,VALID,102.094,VALID,0,VALID,23.8304,VALID,61,VALID,0,
2010-05-03, 00:57:04,VALID,1008.19,VALID,0,VALID,102.101,VALID,0,VALID,23.7896,VALID,62,VALID,0.304297,
2010-05-03, 00:58:04,VALID,1008.17,VALID,0,VALID,102.094,VALID,0,VALID,23.8091,VALID,61,VALID,0.269531,
2010-05-03, 00:59:04,VALID,1008.2,VALID,0,VALID,102.063,VALID,0,VALID,23.8304,VALID,61,VALID,0.215234,
2010-05-03, 01:00:04,VALID,1008.17,VALID,0,VALID,102.063,VALID,0,VALID,23.7896,VALID,61,VALID,0,
2010-05-03, 01:01:04,VALID,1008.2,VALID,0,VALID,102.063,VALID,0.105969,VALID,23.8091,VALID,61,VALID,0.175781,
2010-05-03, 01:02:04,VALID,1008.15,VALID,0,VALID,102.055,VALID,0.105969,VALID,23.8304,VALID,72,VALID,0.50625,
2010-05-03, 01:03:04,VALID,1008.13,VALID,0,VALID,102.04,VALID,0.105969,VALID,23.8286,VALID,89,VALID,0.533984,
2010-05-03, 01:04:04,VALID,1008.13,VALID,0,VALID,102.033,VALID,0,VALID,23.8499,VALID,89,VALID,0.301953,
2010-05-03, 01:05:04,VALID,1008.11,VALID,0,VALID,102.055,VALID,0,VALID,23.8109,VALID,89,VALID,0.00664063,
2010-05-03, 01:06:04,VALID,1008.11,VALID,0,VALID,102.048,VALID,0,VALID,23.8109,VALID,89,VALID,0.516797,
2010-05-03, 01:07:04,VALID,1008.1,VALID,0,VALID,102.01,VALID,0,VALID,23.8109,VALID,89,VALID,0.501562,
2010-05-03, 01:08:04,VALID,1008.1,VALID,0,VALID,102.048,VALID,0,VALID,23.8109,VALID,89,VALID,0.493359,
2010-05-03, 01:09:04,VALID,1008.09,VALID,0,VALID,102.04,VALID,0,VALID,23.7914,VALID,89,VALID,0.374219,
2010-05-03, 01:10:04,VALID,1008.09,VALID,0,VALID,102.055,VALID,0,VALID,23.7896,VALID,89,VALID,0.3125,
2010-05-03, 01:11:04,VALID,1008.05,VALID,0,VALID,102.017,VALID,0,VALID,23.8109,VALID,89,VALID,0.142578,
2010-05-03, 01:12:04,VALID,1008.05,VALID,0,VALID,102.04,VALID,0,VALID,23.7914,VALID,89,VALID,0,
2010-05-03, 01:13:04,VALID,1008.03,VALID,0,VALID,102.025,VALID,0,VALID,23.7914,VALID,89,VALID,0,
2010-05-03, 01:14:04,VALID,1008.02,VALID,0,VALID,102.01,VALID,0,VALID,23.7914,VALID,89,VALID,0,
2010-05-03, 01:15:04,VALID,1008.02,VALID,0,VALID,102.01,VALID,0,VALID,23.772,VALID,89,VALID,0,
2010-05-03, 01:16:04,VALID,1008.03,VALID,0,VALID,102.017,VALID,0,VALID,23.7507,VALID,89,VALID,0,
2010-05-03, 01:17:04,VALID,1008.03,VALID,0,VALID,102.01,VALID,0,VALID,23.7701,VALID,89,VALID,0,
2010-05-03, 01:18:04,VALID,1008.04,VALID,0,VALID,102.002,VALID,0,VALID,23.7507,VALID,89,VALID,0,
2010-05-03, 01:19:04,VALID,1008.02,VALID,0,VALID,102.002,VALID,0,VALID,23.772,VALID,89,VALID,0,
2010-05-03, 01:20:04,VALID,1008.06,VALID,0,VALID,101.994,VALID,0,VALID,23.7312,VALID,89,VALID,0,
2010-05-03, 01:21:04,VALID,1008.05,VALID,0,VALID,101.987,VALID,0,VALID,23.772,VALID,89,VALID,0,
2010-05-03, 01:22:04,VALID,1008.06,VALID,0,VALID,101.972,VALID,0,VALID,23.7525,VALID,89,VALID,0,
2010-05-03, 01:23:04,VALID,1008.07,VALID,0,VALID,101.979,VALID,0,VALID,23.7525,VALID,89,VALID,0,
2010-05-03, 01:24:04,VALID,1008.06,VALID,0,VALID,101.979,VALID,0.105969,VALID,23.7525,VALID,89,VALID,0,
2010-05-03, 01:25:04,VALID,1008.04,VALID,0,VALID,101.979,VALID,0,VALID,23.7525,VALID,89,VALID,0,
2010-05-03, 01:26:04,VALID,1008.03,VALID,0,VALID,101.964,VALID,0,VALID,23.7117,VALID,89,VALID,0.174609,
2010-05-03, 01:27:04,VALID,1008.02,VALID,0,VALID,101.949,VALID,0,VALID,23.7525,VALID,64,VALID,0.362891,
2010-05-03, 01:28:04,VALID,1008.05,VALID,0,VALID,101.949,VALID,0,VALID,23.7525,VALID,64,VALID,0.147656,
2010-05-03, 01:29:04,VALID,1008.02,VALID,0,VALID,101.941,VALID,0,VALID,23.733,VALID,63,VALID,0.330078,
2010-05-03, 01:30:04,VALID,1008,VALID,0,VALID,101.941,VALID,0.105969,VALID,23.733,VALID,63,VALID,0.00507812,
2010-05-03, 01:31:04,VALID,1008.01,VALID,0,VALID,101.949,VALID,0.105969,VALID,23.7117,VALID,63,VALID,0.153516,
2010-05-03, 01:32:04,VALID,1008,VALID,0,VALID,101.941,VALID,0,VALID,23.7135,VALID,63,VALID,0,
2010-05-03, 01:33:04,VALID,1008,VALID,0,VALID,101.941,VALID,0,VALID,23.7135,VALID,63,VALID,0,
2010-05-03, 01:34:04,VALID,1008,VALID,0,VALID,101.926,VALID,0,VALID,23.694,VALID,63,VALID,0,
2010-05-03, 01:35:04,VALID,1007.99,VALID,0,VALID,101.949,VALID,0.105969,VALID,23.694,VALID,63,VALID,0,
2010-05-03, 01:36:04,VALID,1007.99,VALID,0,VALID,101.941,VALID,0,VALID,23.6745,VALID,63,VALID,0,
2010-05-03, 01:37:04,VALID,1007.97,VALID,0,VALID,101.933,VALID,0.105969,VALID,23.6745,VALID,63,VALID,0,
2010-05-03, 01:38:04,VALID,1007.95,VALID,0,VALID,101.911,VALID,0.105969,VALID,23.6745,VALID,63,VALID,0,
2010-05-03, 01:39:04,VALID,1007.93,VALID,0,VALID,101.888,VALID,0,VALID,23.6532,VALID,63,VALID,0.289453,
2010-05-03, 01:40:04,VALID,1007.94,VALID,0,VALID,101.888,VALID,0,VALID,23.6727,VALID,63,VALID,0.228906,
2010-05-03, 01:41:04,VALID,1007.92,VALID,0,VALID,101.872,VALID,0,VALID,23.7135,VALID,62,VALID,0,
2010-05-03, 01:42:04,VALID,1007.91,VALID,0,VALID,101.842,VALID,0,VALID,23.733,VALID,46,VALID,0.398438,
2010-05-03, 01:43:04,VALID,1007.93,VALID,0,VALID,101.834,VALID,0.105969,VALID,23.7117,VALID,43,VALID,0,
2010-05-03, 01:44:04,VALID,1007.89,VALID,0,VALID,101.842,VALID,0,VALID,23.733,VALID,337,VALID,0.395312,
2010-05-03, 01:45:04,VALID,1007.9,VALID,0,VALID,101.85,VALID,0,VALID,23.733,VALID,337,VALID,0.1625,
2010-05-03, 01:46:04,VALID,1007.89,VALID,0,VALID,101.857,VALID,0,VALID,23.733,VALID,337,VALID,0.105859,
2010-05-03, 01:47:04,VALID,1007.9,VALID,0,VALID,101.865,VALID,0.105969,VALID,23.6922,VALID,337,VALID,0,
2010-05-03, 01:48:04,VALID,1007.87,VALID,0,VALID,101.85,VALID,0,VALID,23.7135,VALID,337,VALID,0,
2010-05-03, 01:49:04,VALID,1007.87,VALID,0,VALID,101.865,VALID,0,VALID,23.7135,VALID,337,VALID,0,
2010-05-03, 01:50:04,VALID,1007.85,VALID,0,VALID,101.865,VALID,0.105969,VALID,23.6922,VALID,337,VALID,0,
2010-05-03, 01:51:04,VALID,1007.84,VALID,0,VALID,101.842,VALID,0.105969,VALID,23.6922,VALID,337,VALID,0,
2010-05-03, 01:52:04,VALID,1007.84,VALID,0,VALID,101.85,VALID,0,VALID,23.6727,VALID,337,VALID,0,
2010-05-03, 01:53:04,VALID,1007.83,VALID,0,VALID,101.834,VALID,0.105969,VALID,23.6727,VALID,337,VALID,0,
2010-05-03, 01:54:04,VALID,1007.83,VALID,0,VALID,101.834,VALID,0.105969,VALID,23.7135,VALID,337,VALID,0,
2010-05-03, 01:55:04,VALID,1007.85,VALID,0,VALID,101.811,VALID,0.105969,VALID,23.6922,VALID,337,VALID,0,
2010-05-03, 01:56:04,VALID,1007.86,VALID,0,VALID,101.819,VALID,0,VALID,23.6922,VALID,337,VALID,0,
2010-05-03, 01:57:04,VALID,1007.84,VALID,0,VALID,101.811,VALID,0,VALID,23.7135,VALID,337,VALID,0,
2010-05-03, 01:58:04,VALID,1007.87,VALID,0,VALID,101.811,VALID,0.105969,VALID,23.6922,VALID,337,VALID,0,
2010-05-03, 01:59:04,VALID,1007.88,VALID,0,VALID,101.819,VALID,0.105969,VALID,23.6922,VALID,337,VALID,0,
2010-05-03, 02:00:04,VALID,1007.87,VALID,0,VALID,101.811,VALID,0.105969,VALID,23.6727,VALID,337,VALID,0,
2010-05-03, 02:01:04,VALID,1007.89,VALID,0,VALID,101.811,VALID,0.105969,VALID,23.6727,VALID,337,VALID,0,
2010-05-03, 02:02:04,VALID,1007.92,VALID,0,VALID,101.819,VALID,0,VALID,23.6745,VALID,337,VALID,0,
2010-05-03, 02:03:04,VALID,1007.92,VALID,0,VALID,101.811,VALID,0,VALID,23.6745,VALID,337,VALID,0,
2010-05-03, 02:04:04,VALID,1007.91,VALID,0,VALID,101.804,VALID,0.105969,VALID,23.6745,VALID,337,VALID,0,
2010-05-03, 02:05:04,VALID,1007.92,VALID,0,VALID,101.811,VALID,0,VALID,23.6745,VALID,337,VALID,0,
2010-05-03, 02:06:04,VALID,1007.88,VALID,0,VALID,101.811,VALID,0,VALID,23.6745,VALID,337,VALID,0,
2010-05-03, 02:07:04,VALID,1007.86,VALID,0,VALID,101.811,VALID,0,VALID,23.6745,VALID,337,VALID,0,
2010-05-03, 02:08:04,VALID,1007.86,VALID,0,VALID,101.766,VALID,0,VALID,23.6745,VALID,337,VALID,0,
2010-05-03, 02:09:04,VALID,1007.85,VALID,0,VALID,101.773,VALID,0,VALID,23.694,VALID,337,VALID,0,
2010-05-03, 02:10:04,VALID,1007.82,VALID,0,VALID,101.758,VALID,0,VALID,23.694,VALID,337,VALID,0.148047,
2010-05-03, 02:11:04,VALID,1007.79,VALID,0,VALID,101.758,VALID,0.105969,VALID,23.694,VALID,337,VALID,0.315234,
2010-05-03, 02:12:04,VALID,1007.79,VALID,0,VALID,101.781,VALID,0,VALID,23.6727,VALID,337,VALID,0.322656,
2010-05-03, 02:13:04,VALID,1007.78,VALID,0,VALID,101.789,VALID,0,VALID,23.6745,VALID,337,VALID,0.419531,
2010-05-03, 02:14:04,VALID,1007.76,VALID,0,VALID,101.781,VALID,0.105969,VALID,23.6745,VALID,337,VALID,0.259375,
2010-05-03, 02:15:04,VALID,1007.75,VALID,0,VALID,101.796,VALID,0,VALID,23.6745,VALID,337,VALID,0.241406,
2010-05-03, 02:16:04,VALID,1007.73,VALID,0,VALID,101.773,VALID,0.105969,VALID,23.6532,VALID,337,VALID,0.423828,
2010-05-03, 02:17:04,VALID,1007.7,VALID,0,VALID,101.781,VALID,0,VALID,23.6532,VALID,337,VALID,0.301172,
2010-05-03, 02:18:04,VALID,1007.66,VALID,0,VALID,101.75,VALID,0.105969,VALID,23.6745,VALID,337,VALID,0.283594,
2010-05-03, 02:19:04,VALID,1007.65,VALID,0,VALID,101.735,VALID,0,VALID,23.6532,VALID,331,VALID,0.463281,
2010-05-03, 02:20:04,VALID,1007.59,VALID,0,VALID,101.72,VALID,0,VALID,23.694,VALID,331,VALID,0.434766,
2010-05-03, 02:21:04,VALID,1007.6,VALID,0,VALID,101.712,VALID,0.105969,VALID,23.6922,VALID,290,VALID,0.527344,
2010-05-03, 02:22:04,VALID,1007.57,VALID,0,VALID,101.728,VALID,0,VALID,23.7117,VALID,290,VALID,0.322266,
2010-05-03, 02:23:04,VALID,1007.57,VALID,0,VALID,101.72,VALID,0,VALID,23.733,VALID,290,VALID,0.158203,
2010-05-03, 02:24:04,VALID,1007.54,VALID,0,VALID,101.735,VALID,0.105969,VALID,23.6922,VALID,290,VALID,0,
2010-05-03, 02:25:04,VALID,1007.51,VALID,0,VALID,101.735,VALID,0,VALID,23.7135,VALID,290,VALID,0,
2010-05-03, 02:26:04,VALID,1007.5,VALID,0,VALID,101.743,VALID,0,VALID,23.6727,VALID,290,VALID,0,
2010-05-03, 02:27:04,VALID,1007.54,VALID,0,VALID,101.766,VALID,0,VALID,23.694,VALID,290,VALID,0,
2010-05-03, 02:28:04,VALID,1007.52,VALID,0,VALID,101.743,VALID,0.105969,VALID,23.6727,VALID,290,VALID,0,
2010-05-03, 02:29:04,VALID,1007.53,VALID,0,VALID,101.766,VALID,0,VALID,23.6745,VALID,290,VALID,0.0304688,
2010-05-03, 02:30:04,VALID,1007.54,VALID,0,VALID,101.758,VALID,0,VALID,23.6532,VALID,290,VALID,0.258203,
2010-05-03, 02:31:04,VALID,1007.52,VALID,0,VALID,101.758,VALID,0,VALID,23.6745,VALID,290,VALID,0.258984,
2010-05-03, 02:32:04,VALID,1007.52,VALID,0,VALID,101.75,VALID,0,VALID,23.6338,VALID,290,VALID,0.280078,
2010-05-03, 02:33:04,VALID,1007.5,VALID,0,VALID,101.743,VALID,0,VALID,23.655,VALID,290,VALID,0.402344,
2010-05-03, 02:34:04,VALID,1007.53,VALID,0,VALID,101.728,VALID,0,VALID,23.6745,VALID,313,VALID,0.590625,
2010-05-03, 02:35:04,VALID,1007.51,VALID,0,VALID,101.735,VALID,0,VALID,23.6745,VALID,317,VALID,0.433594,
2010-05-03, 02:36:04,VALID,1007.51,VALID,0,VALID,101.743,VALID,0,VALID,23.655,VALID,317,VALID,0.303125,
2010-05-03, 02:37:04,VALID,1007.5,VALID,0,VALID,101.735,VALID,0.105969,VALID,23.6532,VALID,317,VALID,0.327734,
2010-05-03, 02:38:04,VALID,1007.48,VALID,0,VALID,101.75,VALID,0.105969,VALID,23.6338,VALID,317,VALID,0.319531,
2010-05-03, 02:39:04,VALID,1007.5,VALID,0,VALID,101.743,VALID,0,VALID,23.6356,VALID,317,VALID,0,
2010-05-03, 02:40:04,VALID,1007.46,VALID,0,VALID,101.743,VALID,0.105969,VALID,23.6338,VALID,317,VALID,0,
2010-05-03, 02:41:04,VALID,1007.43,VALID,0,VALID,101.75,VALID,0.105969,VALID,23.6143,VALID,317,VALID,0,
2010-05-03, 02:42:04,VALID,1007.45,VALID,0,VALID,101.743,VALID,0,VALID,23.6356,VALID,317,VALID,0.0421875,
2010-05-03, 02:43:04,VALID,1007.41,VALID,0,VALID,101.773,VALID,0.105969,VALID,23.5948,VALID,317,VALID,0.311328,
2010-05-03, 02:44:04,VALID,1007.39,VALID,0,VALID,101.766,VALID,0.105969,VALID,23.5948,VALID,350,VALID,0.181641,
2010-05-03, 02:45:04,VALID,1007.38,VALID,0,VALID,101.766,VALID,0.105969,VALID,23.5753,VALID,350,VALID,0.01875,
2010-05-03, 02:46:04,VALID,1007.39,VALID,0,VALID,101.766,VALID,0.105969,VALID,23.5966,VALID,350,VALID,0,
2010-05-03, 02:47:04,VALID,1007.36,VALID,0,VALID,101.766,VALID,0.105969,VALID,23.5771,VALID,350,VALID,0,
2010-05-03, 02:48:04,VALID,1007.38,VALID,0,VALID,101.758,VALID,0.105969,VALID,23.5576,VALID,350,VALID,0,
2010-05-03, 02:49:04,VALID,1007.38,VALID,0,VALID,101.75,VALID,0,VALID,23.5576,VALID,350,VALID,0.193359,
2010-05-03, 02:50:04,VALID,1007.37,VALID,0,VALID,101.758,VALID,0.105969,VALID,23.5558,VALID,350,VALID,0.028125,
2010-05-03, 02:51:04,VALID,1007.37,VALID,0,VALID,101.743,VALID,0.105969,VALID,23.5576,VALID,350,VALID,0.00429688,
2010-05-03, 02:52:04,VALID,1007.36,VALID,0,VALID,101.75,VALID,0,VALID,23.5576,VALID,350,VALID,0,
2010-05-03, 02:53:04,VALID,1007.37,VALID,0,VALID,101.735,VALID,0.105969,VALID,23.5576,VALID,350,VALID,0,
2010-05-03, 02:54:04,VALID,1007.4,VALID,0,VALID,101.743,VALID,0,VALID,23.5558,VALID,350,VALID,0,
2010-05-03, 02:55:04,VALID,1007.41,VALID,0,VALID,101.735,VALID,0,VALID,23.5771,VALID,350,VALID,0,
2010-05-03, 02:56:04,VALID,1007.41,VALID,0,VALID,101.75,VALID,0,VALID,23.5363,VALID,350,VALID,0,
2010-05-03, 02:57:04,VALID,1007.41,VALID,0,VALID,101.743,VALID,0,VALID,23.5576,VALID,350,VALID,0,
2010-05-03, 02:58:04,VALID,1007.43,VALID,0,VALID,101.72,VALID,0,VALID,23.5771,VALID,350,VALID,0,
2010-05-03, 02:59:04,VALID,1007.41,VALID,0,VALID,101.728,VALID,0.105969,VALID,23.5558,VALID,350,VALID,0,
2010-05-03, 03:00:04,VALID,1007.41,VALID,0,VALID,101.712,VALID,0.105969,VALID,23.5966,VALID,350,VALID,0,
2010-05-03, 03:01:04,VALID,1007.38,VALID,0,VALID,101.72,VALID,0,VALID,23.5558,VALID,350,VALID,0,
2010-05-03, 03:02:04,VALID,1007.4,VALID,0,VALID,101.728,VALID,0.105969,VALID,23.5363,VALID,350,VALID,0,
2010-05-03, 03:03:04,VALID,1007.38,VALID,0,VALID,101.72,VALID,0.105969,VALID,23.5753,VALID,350,VALID,0,
2010-05-03, 03:04:04,VALID,1007.4,VALID,0,VALID,101.705,VALID,0.105969,VALID,23.5966,VALID,350,VALID,0,
2010-05-03, 03:05:04,VALID,1007.42,VALID,0,VALID,101.705,VALID,0,VALID,23.5753,VALID,350,VALID,0,
2010-05-03, 03:06:04,VALID,1007.44,VALID,0,VALID,101.72,VALID,0.105969,VALID,23.5753,VALID,350,VALID,0,
2010-05-03, 03:07:04,VALID,1007.45,VALID,0,VALID,101.728,VALID,0.105969,VALID,23.5753,VALID,350,VALID,0,
2010-05-03, 03:08:04,VALID,1007.44,VALID,0,VALID,101.75,VALID,0,VALID,23.5558,VALID,350,VALID,0,
2010-05-03, 03:09:04,VALID,1007.45,VALID,0,VALID,101.735,VALID,0,VALID,23.5771,VALID,350,VALID,0,
2010-05-03, 03:10:04,VALID,1007.44,VALID,0,VALID,101.735,VALID,0,VALID,23.5576,VALID,350,VALID,0,
2010-05-03, 03:11:04,VALID,1007.47,VALID,0,VALID,101.728,VALID,0.105969,VALID,23.5363,VALID,350,VALID,0,
2010-05-03, 03:12:04,VALID,1007.45,VALID,0,VALID,101.72,VALID,0.105969,VALID,23.5558,VALID,350,VALID,0,
2010-05-03, 03:13:04,VALID,1007.44,VALID,0,VALID,101.75,VALID,0.105969,VALID,23.5363,VALID,350,VALID,0,
2010-05-03, 03:14:04,VALID,1007.45,VALID,0,VALID,101.75,VALID,0,VALID,23.5169,VALID,350,VALID,0,
2010-05-03, 03:15:04,VALID,1007.46,VALID,0,VALID,101.735,VALID,0,VALID,23.5363,VALID,350,VALID,0,
2010-05-03, 03:16:04,VALID,1007.43,VALID,0,VALID,101.743,VALID,0.105969,VALID,23.5169,VALID,350,VALID,0,
2010-05-03, 03:17:04,VALID,1007.47,VALID,0,VALID,101.743,VALID,0.105969,VALID,23.5169,VALID,350,VALID,0,
2010-05-03, 03:18:04,VALID,1007.45,VALID,0,VALID,101.705,VALID,0.105969,VALID,23.5363,VALID,350,VALID,0,
2010-05-03, 03:19:04,VALID,1007.45,VALID,0,VALID,101.72,VALID,0.105969,VALID,23.5363,VALID,350,VALID,0,
2010-05-03, 03:20:04,VALID,1007.48,VALID,0,VALID,101.728,VALID,0.105969,VALID,23.5381,VALID,350,VALID,0,
2010-05-03, 03:21:04,VALID,1007.48,VALID,0,VALID,101.728,VALID,0.105969,VALID,23.5169,VALID,350,VALID,0,
2010-05-03, 03:22:04,VALID,1007.46,VALID,0,VALID,101.712,VALID,0.105969,VALID,23.5169,VALID,350,VALID,0,
2010-05-03, 03:23:04,VALID,1007.48,VALID,0,VALID,101.712,VALID,0.105969,VALID,23.5381,VALID,350,VALID,0,
2010-05-03, 03:24:04,VALID,1007.45,VALID,0,VALID,101.72,VALID,0,VALID,23.5381,VALID,350,VALID,0.108594,
2010-05-03, 03:25:04,VALID,1007.47,VALID,0,VALID,101.705,VALID,0.105969,VALID,23.5576,VALID,350,VALID,0,
2010-05-03, 03:26:04,VALID,1007.49,VALID,0,VALID,101.705,VALID,0,VALID,23.5169,VALID,350,VALID,0,
2010-05-03, 03:27:04,VALID,1007.47,VALID,0,VALID,101.712,VALID,0.105969,VALID,23.5169,VALID,350,VALID,0,
2010-05-03, 03:28:04,VALID,1007.47,VALID,0,VALID,101.712,VALID,0.105969,VALID,23.5381,VALID,350,VALID,0,
2010-05-03, 03:29:04,VALID,1007.47,VALID,0,VALID,101.728,VALID,0,VALID,23.4974,VALID,350,VALID,0,
2010-05-03, 03:30:04,VALID,1007.47,VALID,0,VALID,101.705,VALID,0,VALID,23.5169,VALID,28,VALID,0.0585938,
2010-05-03, 03:31:04,VALID,1007.48,VALID,0,VALID,101.674,VALID,0,VALID,23.5381,VALID,112,VALID,0.576172,
2010-05-03, 03:32:04,VALID,1007.49,VALID,0,VALID,101.682,VALID,0,VALID,23.5771,VALID,113,VALID,0.379687,
2010-05-03, 03:33:04,VALID,1007.47,VALID,0,VALID,101.651,VALID,0,VALID,23.5789,VALID,113,VALID,0.720703,
2010-05-03, 03:34:04,VALID,1007.49,VALID,0,VALID,101.667,VALID,0,VALID,23.5576,VALID,112,VALID,0.372656,
2010-05-03, 03:35:04,VALID,1007.51,VALID,0,VALID,101.659,VALID,0,VALID,23.5771,VALID,112,VALID,0,
2010-05-03, 03:36:04,VALID,1007.47,VALID,0,VALID,101.674,VALID,0,VALID,23.5966,VALID,112,VALID,0.0890625,
2010-05-03, 03:37:04,VALID,1007.48,VALID,0,VALID,101.674,VALID,0,VALID,23.5771,VALID,112,VALID,0.0484375,
2010-05-03, 03:38:04,VALID,1007.49,VALID,0,VALID,101.667,VALID,0,VALID,23.5966,VALID,112,VALID,0,
2010-05-03, 03:39:04,VALID,1007.49,VALID,0,VALID,101.667,VALID,0,VALID,23.5966,VALID,92,VALID,0.344141,
2010-05-03, 03:40:04,VALID,1007.47,VALID,0,VALID,101.705,VALID,0,VALID,23.5966,VALID,73,VALID,0.530078,
2010-05-03, 03:41:04,VALID,1007.48,VALID,0,VALID,101.705,VALID,0,VALID,23.5966,VALID,60,VALID,0.400781,
2010-05-03, 03:42:04,VALID,1007.47,VALID,0,VALID,101.735,VALID,0,VALID,23.5966,VALID,60,VALID,0.293359,
2010-05-03, 03:43:04,VALID,1007.48,VALID,0,VALID,101.75,VALID,0,VALID,23.5771,VALID,60,VALID,0.257031,
2010-05-03, 03:44:04,VALID,1007.47,VALID,0,VALID,101.766,VALID,0,VALID,23.5771,VALID,82,VALID,0.747656,
2010-05-03, 03:45:04,VALID,1007.5,VALID,0,VALID,101.773,VALID,0,VALID,23.5576,VALID,55,VALID,0.259766,
2010-05-03, 03:46:04,VALID,1007.45,VALID,0,VALID,101.75,VALID,0,VALID,23.5789,VALID,70,VALID,0.298828,
2010-05-03, 03:47:04,VALID,1007.46,VALID,0,VALID,101.766,VALID,0,VALID,23.5381,VALID,86,VALID,0.613281,
2010-05-03, 03:48:04,VALID,1007.48,VALID,0,VALID,101.766,VALID,0,VALID,23.5576,VALID,91,VALID,0.387891,